Rome, OR

2:44 PM MDT on March 27, 2017 (GMT -0600)
Rome State

Weather History for KREO - August, 2014

Change the Weather History Date:

Saturday, August 30, 2014

  Actual Average Record
Temperature  
Mean Temperature 68 °F 67 °F  
Max Temperature 82 °F 87 °F 105 °F (1955)
Min Temperature 54 °F 47 °F 37 °F (1999)
Degree Days  
Heating Degree Days 0 2  
Month to date heating degree days 8 26  
Since 1 June heating degree days 67 165  
Since 1 July heating degree days 8 40  
Cooling Degree Days 3 4  
Month to date cooling degree days 207 173  
Year to date cooling degree days 626 460  
Since 1 June cooling degree days 615 450  
Growing Degree Days 19 (Base 50)    
Moisture  
Dew Point 39 °F    
Average Humidity 44    
Maximum Humidity 72    
Minimum Humidity 16    
Precipitation  
Precipitation 0.00 in 0.01 in 0.50 in (1984)
Month to date precipitation 0.11 0.35  
Year to date precipitation 2.30 6.32  
Sea Level Pressure  
Sea Level Pressure 29.84 in    
Wind  
Wind Speed 7 mph (North)    
Max Wind Speed 28 mph    
Max Gust Speed 37 mph    
T = Trace of Precipitation, MM = Missing Value Source: NWS Daily Summary

Daily Weather History Graph

Daily Weather History Graph

Search for Another Location

Airport or City:

Trip Planner

Search our weather history database for the weather conditions in past years. The results will help you decide how hot, cold, wet, or windy it might be!

Date:

Astronomy

Aug. 30, 2014 Rise Set
Actual Time 6:14 AM PDT 7:29 PM PDT
Civil Twilight 5:45 AM PDT 7:58 PM PDT
Nautical Twilight 5:10 AM PDT 8:32 PM PDT
Astronomical Twilight 4:33 AM PDT 9:09 PM PDT
Moon 11:13 AM PDT (8/30) 9:58 PM PDT (8/30)
Length of Visible Light 14h 12m
Length of Day
13h 14m
Waxing Crescent, 24% of the Moon is Illuminated
Aug 30
Waxing Crescent
Sep 2
First Quarter
Sep 8
Full
Sep 15
Last Quarter
Sep 23
New

Hourly Weather History & Observations

Time (PDT) Temp. Dew Point Humidity Pressure Visibility Wind Dir Wind Speed Gust Speed Precip Events Conditions
12:52 AM 73.0 °F 37.0 °F 27% 29.79 in - WNW 8.1 mph - N/A   Unknown
1:52 AM 70.0 °F 37.0 °F 30% 29.79 in - Calm Calm - N/A   Unknown
2:52 AM 66.0 °F 36.0 °F 33% 29.80 in - ESE 3.5 mph - N/A   Unknown
3:52 AM 66.0 °F 37.9 °F 36% 29.81 in - East 4.6 mph - N/A   Unknown
4:52 AM 64.9 °F 39.9 °F 40% 29.83 in - ENE 8.1 mph - N/A   Unknown
5:52 AM 63.0 °F 41.0 °F 45% 29.84 in - East 8.1 mph - N/A   Unknown
6:52 AM 62.1 °F 41.0 °F 46% 29.86 in - ENE 6.9 mph - N/A   Unknown
7:52 AM 64.0 °F 41.0 °F 43% 29.87 in - ENE 5.8 mph - N/A   Unknown
8:52 AM 66.9 °F 35.1 °F 31% 29.87 in - Variable 3.5 mph - N/A   Unknown
9:52 AM 71.1 °F 37.0 °F 29% 29.88 in - Variable 4.6 mph - N/A   Unknown
10:52 AM 73.9 °F 36.0 °F 25% 29.88 in - Variable 3.5 mph - N/A   Unknown
11:52 AM 75.0 °F 34.0 °F 22% 29.83 in - Variable 3.5 mph - N/A   Unknown
12:52 PM 79.0 °F 33.1 °F 19% 29.81 in - NNW 10.4 mph - N/A   Unknown
1:52 PM 81.0 °F 30.9 °F 16% 29.79 in - WSW 10.4 mph 18.4 mph N/A   Unknown
2:52 PM 79.0 °F 30.9 °F 17% 29.78 in - SW 15.0 mph 29.9 mph N/A   Unknown
3:52 PM 80.1 °F 34.0 °F 19% 29.78 in - WSW 16.1 mph 21.9 mph N/A   Unknown
4:52 PM 78.1 °F 32.0 °F 19% 29.77 in - SW 10.4 mph - N/A   Unknown
5:52 PM 75.9 °F 36.0 °F 23% 29.76 in - North 6.9 mph - N/A   Unknown
6:38 PM 71.1 °F 41.0 °F 34% 29.89 in - NNW 15.0 mph - N/A   Unknown
6:52 PM 71.1 °F 39.9 °F 32% 29.81 in - North 11.5 mph - N/A   Unknown
7:52 PM 60.1 °F 48.0 °F 64% 29.88 in - North 16.1 mph - N/A   Unknown
8:52 PM 59.0 °F 48.9 °F 69% 29.89 in - NE 9.2 mph - N/A   Unknown
9:52 PM 57.0 °F 48.9 °F 74% 29.92 in - NE 6.9 mph - N/A   Unknown
10:52 PM 57.0 °F 46.9 °F 69% 29.92 in - NW 3.5 mph - N/A   Unknown
11:52 PM 57.0 °F 46.9 °F 69% 29.93 in - NNW 5.8 mph - N/A   Unknown